FW6924 Weather Reports


time (UTC)temp
C
wind
direction
speed
KPH
gust
KPH
rain 1hr
cm
rain 24hr
cm
rain mn
cm
humidity
%
barometer
mb
20260503053001 22 238 3.2 6.4 0.00 0.86 0.00 91 1012.2
20260503051959 22 238 1.6 6.4 0.00 0.86 0.00 91 1012.4
20260503051001 22 240 1.6 6.4 0.00 0.86 0.00 91 1012.7
20260503050004 22 238 0.0 3.2 0.00 0.86 0.00 92 1012.5
20260503043003 22 244 1.6 6.4 0.00 0.86 0.00 93 1012.8
20260503042001 22 192 0.0 4.8 0.00 0.86 0.00 93 1012.7
20260503041003 22 190 0.0 4.8 0.00 0.86 0.00 93 1012.8
20260503040005 22 184 0.0 0.0 0.00 0.86 0.00 93 1012.8
20260503034001 22 184 0.0 0.0 0.00 0.86 0.86 93 1012.1
20260503033001 22 184 0.0 0.0 0.00 0.86 0.86 93 1012.0
20260503032003 22 184 0.0 0.0 0.03 0.86 0.86 93 1011.6
20260503031001 22 184 0.0 6.4 0.05 0.86 0.86 93 1011.7
20260503025001 22 180 1.6 4.8 0.08 0.86 0.86 93 1011.1
20260503024022 22 178 0.0 4.8 0.08 0.86 0.86 93 1010.7
20260503023001 22 161 0.0 4.8 0.08 0.86 0.86 93 1010.6
20260503022022 22 213 0.0 1.6 0.05 0.84 0.84 92 1010.8
20260503021001 22 246 0.0 3.2 0.03 0.81 0.81 92 1011.4
20260503020005 22 246 1.6 6.4 0.00 0.79 0.79 92 1011.7
20260503014003 22 219 3.2 9.7 0.00 0.79 0.79 91 1011.2
20260503013001 22 180 3.2 8.0 0.00 0.79 0.79 91 1010.4
20260503012003 22 146 3.2 6.4 0.03 0.79 0.79 91 1010.1
20260503011001 22 172 0.0 4.8 0.03 0.79 0.79 91 1010.8
20260503005001 22 171 1.6 4.8 0.03 0.79 0.79 92 1010.0
20260503004022 22 172 1.6 4.8 0.03 0.79 0.79 92 1010.5
20260503003001 22 174 1.6 4.8 0.03 0.79 0.79 92 1010.3
20260503002003 22 187 0.0 8.0 0.03 0.76 0.76 91 1010.9
20260503001001 22 159 0.0 3.2 0.15 0.76 0.76 91 1010.3
20260503000005 21 107 1.6 4.8 0.18 0.76 0.76 91 1009.7
20260502235000 22 108 1.6 4.8 0.18 0.76 0.76 91 1010.3
20260502234002 22 281 0.0 0.0 0.18 0.76 0.76 91 1010.4
20260502233000 22 281 0.0 0.0 0.18 0.76 0.76 91 1010.6
20260502232002 22 281 1.6 6.4 0.13 0.71 0.71 91 1010.7
20260502231000 22 293 0.0 6.4 0.00 0.58 0.58 91 1010.7
20260502224959 22 303 0.0 4.8 0.58 0.58 0.58 90 1010.3
20260502224002 22 279 1.6 6.4 0.58 0.58 0.58 90 1010.3
20260502223000 22 323 1.6 6.4 0.58 0.58 0.58 89 1010.5
20260502222002 23 331 6.4 16.1 0.58 0.58 0.58 89 1010.3
20260502221000 23 277 8.0 17.7 0.58 0.58 0.58 85 1009.9
20260502220006 26 231 11.3 38.6 0.56 0.56 0.56 80 1009.8
20260502215000 27 209 6.4 16.1 0.00 0.00 0.00 78 1009.1
20260502214002 27 234 9.7 20.9 0.00 0.00 0.00 76 1009.3
20260502212002 28 287 9.7 19.3 0.00 0.00 0.00 74 1009.4
20260502211000 28 247 11.3 20.9 0.00 0.00 0.00 73 1009.0
20260502210005 28 239 8.0 19.3 0.00 0.00 0.00 70 1008.7
20260502205000 28 232 9.7 19.3 0.00 0.00 0.00 68 1008.7
20260502204002 29 236 11.3 17.7 0.00 0.00 0.00 66 1008.7
20260502203000 29 237 11.3 19.3 0.00 0.00 0.00 65 1008.8
20260502202002 30 248 12.9 24.1 0.00 0.00 0.00 63 1008.8
20260502201000 30 242 16.1 25.7 0.00 0.00 0.00 63 1009.0
20260502200004 30 200 14.5 25.7 0.00 0.00 0.00 66 1008.8
20260502195000 30 211 12.9 22.5 0.00 0.00 0.00 66 1008.8
20260502194009 30 263 14.5 27.4 0.00 0.00 0.00 66 1008.8
20260502193000 30 219 16.1 29.0 0.00 0.00 0.00 65 1008.9
20260502192002 30 196 14.5 27.4 0.00 0.00 0.00 65 1008.9
20260502191000 30 257 14.5 25.7 0.00 0.00 0.00 66 1009.4
20260502190005 31 212 16.1 29.0 0.00 0.00 0.00 67 1009.4
20260502185000 31 215 14.5 25.7 0.00 0.00 0.00 66 1009.6
20260502184002 30 252 14.5 25.7 0.00 0.00 0.00 67 1009.8
20260502182002 30 267 14.5 29.0 0.00 0.00 0.00 70 1010.1
20260502164000 30 211 16.1 37.0 0.00 0.00 0.00 72 1010.2
20260502163002 30 244 17.7 32.2 0.00 0.00 0.00 71 1010.3
20260502162000 30 172 14.5 30.6 0.00 0.00 0.00 73 1010.1
20260502161001 30 205 14.5 27.4 0.00 0.00 0.00 74 1010.1
20260502152002 28 225 14.5 29.0 0.00 0.00 0.00 76 1009.9
20260502150959 28 176 16.1 27.4 0.00 0.00 0.00 77 1010.0
20260502122959 23 206 1.6 11.3 0.00 0.00 0.00 93 1009.1
20260502122006 22 177 1.6 8.0 0.00 0.00 0.00 93 1009.1
20260502121000 22 193 3.2 11.3 0.00 0.00 0.00 94 1009.1
20260502114001 21 163 1.6 4.8 0.00 0.00 0.00 94 1009.0
20260502112001 20 133 1.6 6.4 0.00 0.00 0.00 94 1008.9
20260502111000 20 197 1.6 4.8 0.00 0.00 0.00 93 1009.0
20260502110004 20 145 1.6 4.8 0.00 0.00 0.00 94 1009.0
20260502104959 20 146 1.6 6.4 0.00 0.00 0.00 94 1008.9
20260502104001 20 153 1.6 8.0 0.00 0.00 0.00 94 1008.9
20260502102959 20 163 0.0 6.4 0.00 0.00 0.00 93 1008.8
20260502102001 20 136 0.0 0.0 0.00 0.00 0.00 94 1009.0
20260502091000 19 189 0.0 4.8 0.00 0.00 0.00 94 1009.5
20260502071000 20 270 0.0 0.0 0.00 0.00 0.00 93 1009.2
20260502070001 20 270 0.0 0.0 0.00 0.00 0.00 93 1009.2
20260502064001 19 270 0.0 0.0 0.00 0.00 0.00 92 1009.3
20260502061958 19 270 0.0 0.0 0.00 0.00 0.00 91 1009.6
20260502060001 20 270 0.0 0.0 0.00 0.00 0.00 90 1009.7
20260502055000 20 270 0.0 0.0 0.00 0.00 0.00 90 1009.6
20260502053958 20 270 0.0 0.0 0.00 0.00 0.00 90 1009.8